Regional Weather Roundup
Issued by NWS

Home | Current Version | Previous Version | Graphics & Text | Print | Product List | Glossary Off
Versions: 1 2 3 4 5 6 7 8 9 10 11 12 13 14 15 16 17 18 19 20 21 22 23 24 25 26 27 28 29 30 31 32 33 34 35 36 37 38 39 40 41 42 43 44 45 46 47 48 49 50

000
ASUS43 KTOP 201959
RWRKS

WEATHER ROUNDUP FOR KANSAS
NATIONAL WEATHER SERVICE GOODLAND KS
200 PM CST TUE FEB 20 2018

NOTE:  "FAIR" INDICATES FEW OR NO CLOUDS BELOW 12,000 FEET WITH NO
SIGNIFICANT WEATHER AND/OR OBSTRUCTIONS TO VISIBILITY.

KSZ001>006-013>018-027>032-041>047-202100-
NORTHWEST KANSAS

CITY           SKY/WX    TMP DP  RH WIND       PRES   REMARKS
GOODLAND       FAIR      15   3  59 N22G29    30.04F WCI  -3
HAYS           FAIR      25   7  46 N20G25    30.14F WCI  11
HILL CITY      FAIR      24   4  42 N14G29    30.15R WCI  12
RUSSELL        FAIR      26  14  60 NW18G26   30.13F WCI  13
$$

KSZ061>065-074>080-084>089-202100-
SOUTHWEST KANSAS

CITY           SKY/WX    TMP DP  RH WIND       PRES   REMARKS
DODGE CITY     FAIR      28   5  37 N18G32    30.08F WCI  15
GARDEN CITY    FAIR      27   1  32 N21G31    30.07F WCI  13
GREAT BEND     FAIR      26  15  63 N22       30.12F WCI  12
LIBERAL        FAIR      33   2  26 N21       30.06F WCI  21
$$

KSZ066>073-081>083-090>101-202100-
SOUTHEAST KANSAS

CITY           SKY/WX    TMP DP  RH WIND       PRES   REMARKS
CHANUTE        MIX PCPN  29  26  89 N15       30.07F FOG     WCI  18
COFFEYVILLE    FRZ RAIN  32  30  92 N18       30.06S FOG     WCI  20
HUTCHINSON     CLOUDY    24  19  81 N17G25    30.11R WCI  11
MEDICINE LODGE   N/A     28  20  71 N17G29    30.11R WCI  16
NEWTON         CLOUDY    23  19  85 N18       30.11R WCI   9
PARSONS        FRZ RAIN  31  30  96 N15       30.06F WCI  20
WICHITA INTL   CLOUDY    25  20  81 N21       30.12R WCI  11
WICHITA JABRA  CLOUDY    24  22  91 N22       30.11R WCI   9
WINFIELD       CLOUDY    25  24  96 N17       30.11R WCI  12
$$

KSZ007>012-019>026-033>040-048>060-102>105-202100-
NORTHEAST KANSAS

CITY           SKY/WX    TMP DP  RH WIND       PRES   REMARKS
CONCORDIA      PTSUNNY   22  13  68 N18G26    30.15S WCI   7
EMPORIA        CLOUDY    23  18  81 N17G23    30.11R HAZE    WCI   9
LAWRENCE       CLOUDY    26  21  81 NW18      30.10F WCI  13
MANHATTAN      PTSUNNY   25  16  68 NW10G18   30.15S WCI  15
OLATHE IND     CLOUDY    25  22  88 NW18      30.08S WCI  11
OLATHE EXE     CLOUDY    24  21  88 N18G25    30.07R WCI  10
SALINA         CLOUDY    26  19  74 N20G30    30.15F WCI  12
TOPEKA BILLARD CLOUDY    26  21  81 NW13      30.13R WCI  15
TOPEKA FORBES  CLOUDY    26  20  77 NW17      30.10S WCI  13
$$



USA.gov is the U.S. government's official web portal to all federal, state and local government web resources and services.